User: anonymous   Login
Location: D.A.R.C. Observatory
(36.7133°N, 120.8553°W)
Time: 04:39:18
(UTC-07:00)
Language:

USA 215 - Orbit

View from above orbital plane
View from above orbital plane
View from above satellite
View from above satellite

Ground track
Ground track

The orbit data is extracted from the following two-line orbital elements,

1 37162U 10046A   18109.08832447 0.00000000  00000-0  00000-0 0    08
2 37162 123.0003  44.7767 0004000 141.3299 218.6700 13.41422363    01
Epoch (UTC): 19 April 2018 02:07:11
Eccentricity: 0.0004000
inclination: 123.0003°
perigee height: 1101 km
apogee height: 1107 km
right ascension of ascending node: 44.7767°
argument of perigee: 141.3299°
revolutions per day: 13.41422363
mean anomaly at epoch: 218.6700°
orbit number at epoch: 0

The dashed part of the orbit path shows where the satellite is in the earth's shadow,  

DLR